Weather in Kruglovo

Russia / Mari El Republic     56°30′10″N   46°00′02″E
temp.,
°C
wind,
m/s
gust,
m/s
humid.,
%
clouds,
%
prec.,
mm/h
press.,
hPa
HPBL,
m
19 january, tue
tue1900:00−23ne1197100 0.0 102020
03:00−22e1196100 0.0 102020
06:00−21ene1196100 0.0 101920
09:00−21ene0196100 0.0 101841
12:00−18ne1191100 0.0 1018226
15:00−17nnw1192100 0.0 1016231
18:00−18nnw1296100 0.0 101626
21:00−19nw1295100 0.0 101622
20 january, wed
wed2000:00−19nw1296100 0.0 101520
03:00−19wnw1296100 0.0 101630
06:00−19w1197100 0.0 101520
09:00−18w1397100 0.0 1016120
12:00−15w2394100 0.0 1016253
15:00−14w2596100 0.1 1016226
18:00−17w269782 0.0 1017116
21:00−17wsw279786 0.1 1017148
21 january, thu
thu2100:00−17w259783 0.0 1018134
03:00−16w279787 0.1 1018177
06:00−18wsw279782 0.0 1019164
09:00−17wsw379687 0.1 1019259
12:00−14sw3793100 0.0 1018288
15:00−12ssw4990100 0.0 1016359
18:00−12ssw51286100 0.0 1013500
21:00−10sw51293100 1.3 1010868
22 january, fri
fri2200:00−9wsw41094100 1.1 1008734
03:00−8wsw41095100 2.2 1007643
06:00−6wsw2896100 1.2 1006460
09:00−5sw1497100 1.9 1007140
12:00−1sw2697100 0.4 1008362
15:00+1wsw3999100 0.7 1008365
18:00+1w411100100 1.0 1008510
21:00+1wsw3799100 1.1 1010267
23 january, sat
sat2300:00+1sw2499100 0.1 1011129
03:00+1sw3998100 0.2 1010440
06:00+1sw31098100 0.1 1010388
09:00+1wsw41098100 0.3 1010496
12:00+1sw3999100 0.8 1011310
15:00+1sw41098100 1.0 1011486
18:00+1sw3995100 0.0 1012391
21:00+1ssw3896100 0.0 1012338